Coral Harbour, Nunavut

2:53 PM EST on April 27, 2017 (GMT -0500)
Coral Harbour

Weather History for CYZS - September, 2012

Change the Weather History Date:

Sunday, September 30, 2012

  Actual Average Record
Temperature  
Mean Temperature 36 °F -  
Max Temperature 42 °F 25 °F 42 °F (2012)
Min Temperature 29 °F 12 °F 15 °F (2000)
Degree Days  
Heating Degree Days 30    
Moisture  
Dew Point 33 °F    
Average Humidity 86    
Maximum Humidity 93    
Minimum Humidity 66    
Precipitation  
Precipitation 0.00 in 0.05 in - ()
Sea Level Pressure  
Sea Level Pressure 29.75 in    
Wind  
Wind Speed 3 mph ()    
Max Wind Speed 12 mph    
Max Gust Speed -    
Visibility 15.0 miles    
Events Rain    
Averages and records for this station are not official NWS values.
T = Trace of Precipitation, MM = Missing Value Source: Averaged Metar Reports

Daily Weather History Graph

Daily Weather History Graph

Search for Another Location

Airport or City:

Trip Planner

Search our weather history database for the weather conditions in past years. The results will help you decide how hot, cold, wet, or windy it might be!

Date:

Astronomy

Sep. 30, 2012 Rise Set
Actual Time 7:41 AM EDT 7:03 PM EDT
Civil Twilight 6:53 AM EDT 7:51 PM EDT
Nautical Twilight 5:56 AM EDT 8:47 PM EDT
Astronomical Twilight 4:55 AM EDT 9:48 PM EDT
Moon 6:29 PM EDT (9/30) 8:41 AM EDT (9/30)
Length of Visible Light 12h 57m
Length of Day
11h 22m
Full, 100% of the Moon is Illuminated
Sep 30
Full
Oct 8
Last Quarter
Oct 15
New
Oct 21
First Quarter
Oct 29
Full

Hourly Weather History & Observations

Time (EDT) Temp. Windchill Dew Point Humidity Pressure Visibility Wind Dir Wind Speed Gust Speed Precip Events Conditions
12:00 AM 33.8 °F - 32.0 °F 93% 29.69 in 15.0 mi Calm Calm - N/A   Clear
1:00 AM 32.0 °F 26.4 °F 30.2 °F 93% 29.72 in 15.0 mi East 5.8 mph - N/A   Clear
2:00 AM 33 °F - 31 °F 90% 29.73 in 15 mi Calm Calm - -  
2:00 AM 33.8 °F - 32.0 °F 93% 29.73 in 15.0 mi Calm Calm - N/A   Clear
3:00 AM 32.0 °F - 30.2 °F 93% 29.73 in 15.0 mi Calm Calm - N/A   Clear
4:00 AM 32.0 °F 26.4 °F 30.2 °F 93% 29.74 in 15.0 mi West 5.8 mph - N/A   Clear
5:00 AM 32.0 °F 28.7 °F 30.2 °F 93% 29.74 in 15.0 mi WNW 3.5 mph - N/A   Partly Cloudy
6:00 AM 32.0 °F 25.6 °F 30.2 °F 93% 29.74 in 15.0 mi WNW 6.9 mph - N/A   Partly Cloudy
7:00 AM 33.8 °F 28.6 °F 30.2 °F 87% 29.75 in 15.0 mi West 5.8 mph - N/A   Mostly Cloudy
8:00 AM 32 °F - 30 °F 91% 29.75 in 15 mi West 5.8 mph - -   Scattered Clouds
8:00 AM 32.0 °F 26.4 °F 30.2 °F 93% 29.75 in 15.0 mi West 5.8 mph - N/A   Mostly Cloudy
9:00 AM 33.8 °F 28.6 °F 32.0 °F 93% 29.76 in 15.0 mi WNW 5.8 mph - N/A   Mostly Cloudy
10:00 AM 35.6 °F 27.5 °F 32.0 °F 87% 29.75 in 15.0 mi NW 11.5 mph - N/A   Mostly Cloudy
11:00 AM 37.4 °F 29.8 °F 33.8 °F 87% 29.75 in 15.0 mi NW 11.5 mph - N/A   Scattered Clouds
12:00 PM 41.0 °F 38.0 °F 35.6 °F 81% 29.75 in 15.0 mi North 4.6 mph - N/A   Mostly Cloudy
1:00 PM 41.0 °F - 33.8 °F 76% 29.76 in 15.0 mi Calm Calm - N/A   Mostly Cloudy
2:00 PM 42 °F - 35 °F 66% 29.77 in 15 mi Calm Calm - -   Overcast
2:00 PM 41.0 °F - 33.8 °F 76% 29.77 in 15.0 mi Calm Calm - N/A   Overcast
3:00 PM 42.8 °F 40.1 °F 35.6 °F 76% 29.75 in 15.0 mi East 4.6 mph - N/A   Overcast
4:00 PM 42.8 °F 39.3 °F 35.6 °F 76% 29.74 in 15.0 mi NE 5.8 mph - N/A   Overcast
5:00 PM 41.0 °F 37.1 °F 33.8 °F 76% 29.74 in 15.0 mi NE 5.8 mph - N/A   Overcast
6:00 PM 41.0 °F 37.1 °F 33.8 °F 76% 29.74 in 15.0 mi NE 5.8 mph - N/A   Overcast
7:00 PM 39.2 °F 35.9 °F 35.6 °F 87% 29.73 in 15.0 mi East 4.6 mph - N/A   Overcast
8:00 PM 39 °F - 36 °F 84% 29.76 in 15 mi Calm Calm - -   Overcast
8:00 PM 39.2 °F - 35.6 °F 87% 29.76 in 15.0 mi Calm Calm - N/A   Overcast
9:00 PM 37.4 °F - 35.6 °F 93% 29.77 in 15.0 mi Calm Calm - N/A   Overcast
10:00 PM 37.4 °F 33.8 °F 35.6 °F 93% 29.76 in 15.0 mi East 4.6 mph - N/A   Overcast
10:35 PM - - - N/A% - 15.0 mi ENE 4.6 mph - N/A Rain Light Rain
11:00 PM 35.6 °F 31.7 °F 33.8 °F 93% 29.74 in 15.0 mi ENE 4.6 mph - N/A Rain Light Rain